This is the latest recevied weather packets stored in our database for station/object KF0JHJ. If no packets are shown the sender has not sent any weather packets the latest 10 day(s).
| Time | Temp. | Humidity | Pressure | Rain* | Wind** | Luminosity | Snow |
|---|---|---|---|---|---|---|---|
| 1777559702 | 5.56° C | 64% | 1016.6 hPa | - | - | 45 W/m² | - |
| 1777559400 | 6.11° C | 65% | 1016.6 hPa | - | - | 144 W/m² | - |
| 1777559096 | 6.11° C | 65% | 1016.7 hPa | - | - | 224 W/m² | - |
| 1777558791 | 5.56° C | 66% | 1016.6 hPa | - | - | 253 W/m² | - |
| 1777558488 | 5° C | 67% | 1016.6 hPa | - | - | 124 W/m² | - |
| 1777558184 | 5° C | 66% | 1016.8 hPa | - | - | 284 W/m² | - |
| 1777557880 | 5° C | 67% | 1016.6 hPa | - | - | 259 W/m² | - |
| 1777557577 | 5° C | 67% | 1016.5 hPa | - | - | 295 W/m² | - |
| 1777557273 | 5° C | 68% | 1016.5 hPa | - | - | 139 W/m² | - |
| 1777556969 | 5° C | 69% | 1016.5 hPa | - | - | 73 W/m² | - |
| 1777556665 | 4.44° C | 68% | 1016.6 hPa | - | - | 135 W/m² | - |
| 1777556361 | 4.44° C | 69% | 1016.5 hPa | - | - | 217 W/m² | - |
| 1777556057 | 4.44° C | 69% | 1016.6 hPa | - | - | 191 W/m² | - |
| 1777555756 | 4.44° C | 70% | 1016.7 hPa | - | - | 209 W/m² | - |
| 1777555453 | 4.44° C | 69% | 1016.7 hPa | - | - | 194 W/m² | - |
| 1777555149 | 3.89° C | 71% | 1016.7 hPa | - | - | 152 W/m² | - |
| 1777554847 | 3.89° C | 72% | 1016.3 hPa | - | - | 143 W/m² | - |
| 1777554544 | 3.33° C | 73% | 1016.7 hPa | - | - | 91 W/m² | - |
| 1777554241 | 2.78° C | 75% | 1016.7 hPa | - | - | 51 W/m² | - |
| 1777553938 | 2.78° C | 76% | 1016.5 hPa | - | - | 29 W/m² | - |
| 1777553633 | 2.78° C | 77% | 1016.6 hPa | - | - | 29 W/m² | - |
| 1777553330 | 2.22° C | 77% | 1016.7 hPa | - | - | 28 W/m² | - |
| 1777553026 | 2.22° C | 77% | 1016.5 hPa | - | - | 26 W/m² | - |
| 1777552721 | 2.22° C | 78% | 1016.3 hPa | - | - | 26 W/m² | - |
| 1777552418 | 1.67° C | 79% | 1016.6 hPa | - | - | 24 W/m² | - |
* Rain since midnight (hover to see other rain measurements)
** Current wind speed in m/s (hover to see current wind gust speed)